Location: Morzyczyn
(53.3548°N, 14.9157°E)
Time: 19:53:24
(UTC+00:00)

Daily predictions for brighter satellites

Satellite Brightness Start Highest point End
(mag) Time Altitude Azimuth Time Altitude Azimuth Time Altitude Azimuth
Cosmos 1151 Rocket 4.1 19:22:36 10° SSE 19:26:19 28° E 19:30:05 10° NNE
USA 290 2.2 19:23:06 10° NNW 19:26:23 89° SW 19:29:37 10° SSE
Cosmos 1602 4.1 19:23:05 10° N 19:26:50 47° ENE 19:30:34 10° SSE
Meteor 1-25 Rocket 4.4 19:21:27 10° NNW 19:27:19 76° ENE 19:33:10 10° SSE
Cosmos 2278 Rocket 4.0 19:25:16 10° ESE 19:27:43 13° E 19:30:08 10° ENE
Terra 3.3 19:24:22 10° ESE 19:28:10 24° ENE 19:32:00 10° N
USA 307 3.0 19:25:21 10° W 19:29:39 83° N 19:33:57 10° E
CREW DRAGON DEMO-1 DEB 2.5 19:28:08 10° W 19:30:46 59° S 19:33:23 10° E
Ariane Rocket 3.8 19:26:04 10° S 19:30:59 52° W 19:35:58 10° NNW
CZ-2C R/B 4.2 19:28:48 10° NNE 19:33:01 39° E 19:37:15 10° SSE
Cosmos 2263 Rocket 3.6 19:29:17 10° WSW 19:34:36 43° NW 19:39:57 10° NNE
Cosmos 1606 3.1 19:33:13 10° SSW 19:36:57 65° WNW 19:40:45 10° N
Cosmos 1844 Rocket 2.7 19:33:43 10° SSW 19:39:13 67° ESE 19:44:48 10° NE
Cosmos 1805 Rocket 4.1 19:36:55 10° NNW 19:41:12 59° W 19:45:28 10° S
SL-4 R/B 4.1 19:38:11 10° W 19:41:20 19° SW 19:44:35 10° S
SPOT 1/Viking Rocket 3.6 19:36:55 10° SSE 19:42:07 74° ENE 19:47:20 10° NNW
USA 308 3.0 19:38:50 10° W 19:43:08 86° N 19:47:28 10° E
MetOp-B 4.2 19:38:03 10° SSE 19:43:25 90° WSW 19:48:49 10° NNW
X-37B 2.4 19:43:45 10° SW 19:46:01 18° S 19:47:53 12° SE
ARIANE 5 R/B 2.8 19:43:13 10° SSE 19:47:28 56° ENE 19:51:44 10° N
Cosmos 1354 Rocket 4.4 19:42:56 10° S 19:47:52 44° ESE 19:52:51 10° NE
Cosmos 1633 Rocket 3.1 19:45:20 10° N 19:49:44 72° ENE 19:54:08 10° SSE
Cosmos 1745 Rocket 4.4 19:43:52 10° NNW 19:50:03 67° W 19:56:08 10° S
NOSS 3-4 (A) 4.2 19:45:09 10° NW 19:51:43 58° NNE 19:59:04 10° ESE
NOSS 3-4 (C) 4.2 19:45:15 10° NW 19:51:49 58° NNE 19:59:10 10° ESE
Cosmos 1709 Rocket 4.0 19:46:48 10° N 19:52:58 84° E 19:59:05 10° SSE
SPOT 3 Rocket 4.1 19:50:39 10° S 19:55:44 59° WSW 20:00:52 10° NNW
Cosmos 1437 3.7 19:54:17 14° SE 19:56:02 24° E 19:58:26 10° NE
Landsat 7 4.3 19:53:48 10° S 19:58:31 62° W 20:03:16 10° NNW
Cosmos 1470 Rocket 3.9 19:54:28 10° N 19:58:53 54° ENE 20:02:47 13° SSE
Cosmos 1812 3.9 19:56:30 13° SE 19:59:11 26° E 20:02:26 10° NNE
Cosmos 1844 3.7 19:53:44 10° SSW 19:59:27 77° ESE 20:05:08 10° NE
ATLAS 5 CENTAUR R/B 2.7 19:54:27 10° NW 19:59:47 57° SW 20:05:41 12° SSE
Cosmos 968 Rocket 3.8 19:54:58 10° SSW 20:00:13 73° WNW 20:05:28 10° NNE
Akebono 4.0 20:00:33 10° NNW 20:03:24 82° ENE 20:04:51 19° SSE
NOSS 3-3 (A) 4.5 19:59:05 10° S 20:04:21 36° ESE 20:10:16 10° NE
NOSS 3-3 (C) 4.5 19:59:12 10° S 20:04:27 36° ESE 20:10:21 10° NE
Cosmos 1328 Rocket 3.8 20:00:11 10° S 20:04:28 51° E 20:08:47 10° NNE
ATLAS 2AS CENTAUR R/B 3.6 19:57:46 10° NW 20:05:13 51° NNE 20:12:07 10° E
Cosmos 1486 Rocket 4.3 20:02:24 10° SSW 20:07:44 77° WNW 20:13:07 10° NNE
Cosmos 1833 Rocket 2.8 20:03:33 10° NNW 20:09:14 71° NE 20:14:00 15° SE
Meteor 1-26 Rocket 4.2 20:04:39 10° S 20:10:20 73° E 20:15:51 10° NNE
Meteor 1-14 Rocket 4.3 20:04:52 10° NNW 20:10:51 82° ENE 20:16:14 12° SSE
CARTOSAT-1 3.5 20:07:01 12° SSE 20:10:57 83° ENE 20:15:17 10° NNW
Cosmos 2315 Rocket 4.1 20:06:40 10° S 20:13:01 75° E 20:19:25 10° NNE
CRYOSAT 2 4.5 20:08:27 10° S 20:13:21 81° W 20:18:18 10° N
Cosmos 1933 Rocket 3.9 20:09:11 10° N 20:13:27 50° ENE 20:16:40 16° SE
S3M 4.5 20:07:31 10° SSW 20:13:52 67° WNW 20:20:12 10° N
BREEZE-M R/B 2.9 20:12:32 10° SW 20:14:35 24° SSE 20:15:12 21° SE
Cosmos 1666 3.2 20:11:17 10° N 20:14:53 42° ENE 20:17:20 18° SE
Cosmos 1666 Rocket 4.1 20:10:57 10° NNW 20:15:18 57° W 20:19:35 10° S
USA 215 3.6 20:11:11 10° E 20:17:40 68° N 20:24:09 10° WNW
Cosmos 1538 Rocket 4.2 20:14:00 10° NNW 20:19:24 69° ENE 20:23:35 17° SE
Cosmos 1933 4.2 20:20:10 10° SSW 20:24:07 51° WNW 20:28:04 10° N
USA 305 2.9 20:20:56 10° WNW 20:25:13 76° SSW 20:28:37 16° ESE
USA 245 3.5 20:23:48 13° SSW 20:25:28 29° W 20:27:31 10° NW
Iridium 4 Rocket 4.1 20:22:03 15° SSE 20:26:43 54° E 20:32:28 10° N
Cosmos 1242 Rocket 3.4 20:26:10 10° SSW 20:29:40 50° WNW 20:33:09 10° N
Cosmos 158 Rocket 4.2 20:27:25 10° NNW 20:32:15 56° ENE 20:35:40 19° SE
Cosmos 773 Rocket 4.4 20:27:29 10° NNW 20:32:43 60° WSW 20:37:01 15° S
BREEZE M DEB (TANK) 2.4 20:29:30 10° W 20:33:20 33° SSW 20:34:07 26° SSE
Resurs 01 Rocket 3.7 20:32:04 10° SW 20:35:37 23° W 20:39:12 10° NW
Cosmos 1680 Rocket 4.4 20:32:09 10° NNW 20:37:11 40° NE 20:41:08 16° ESE
Spot 2 Rocket 4.1 20:34:12 11° S 20:38:54 53° W 20:43:52 10° NNW
COSMOS 2406 3.3 20:33:54 10° NW 20:39:36 77° WSW 20:43:43 19° SSE
SJ 16-02 2.2 20:38:20 21° SSE 20:40:26 32° ESE 20:44:24 10° NE
Cosmos 2228 Rocket 3.9 20:40:06 21° SE 20:42:18 34° E 20:46:20 10° NNE
Cosmos 2082 Rocket 2.3 20:36:50 10° NNW 20:42:28 69° NE 20:46:28 20° SE
USA 306 2.9 20:40:04 10° WNW 20:44:18 66° SSW 20:47:01 21° SE
Cosmos 1500 3.9 20:40:41 10° NNW 20:44:20 48° W 20:47:10 15° SSW
CZ-4C R/B 3.1 20:38:12 10° NW 20:45:09 66° SW 20:51:18 19° SSE
Meteor 2-6 Rocket 4.2 20:41:14 15° S 20:45:45 66° E 20:51:14 10° NNE
Cosmos 1782 3.7 20:44:18 10° SSW 20:48:11 50° WNW 20:52:06 10° N
Gbstr 26 Del rocket 4.2 20:40:57 10° W 20:48:42 80° S 20:55:10 10° E
deb Kosmos-1763 4.0 20:50:05 10° NNW 20:53:38 72° WSW 20:55:19 28° SSE
ERS-1 Rocket 3.4 20:50:52 16° S 20:54:49 56° W 20:59:48 10° NNW
H-2A R/B 3.5 20:51:05 10° NNE 20:55:17 62° ESE 20:57:49 23° S
SL-24 DEB 4.3 20:53:26 23° SSE 20:56:13 68° E 21:00:48 10° N
SPOT 5 3.5 20:52:52 16° S 20:56:50 57° W 21:02:02 10° NNW
Meteor 1-11 Rocket 3.9 20:52:42 10° NNW 20:58:44 80° ENE 21:02:44 22° SSE
ERBS 3.4 20:57:33 10° WNW 21:00:44 44° N 21:03:56 10° E
SOZ 4.2 20:59:21 10° WSW 21:01:32 62° S 21:03:12 20° E
Cosmos 1271 Rocket 2.9 21:00:22 26° S 21:02:25 60° E 21:06:24 10° NNE
Cosmos 1151 Rocket 4.3 20:59:39 10° SW 21:03:45 39° WNW 21:07:54 10° N
Cosmos 1777 Rocket 3.9 20:58:53 10° SSW 21:04:05 83° ESE 21:09:20 10° NNE
CREW DRAGON DEMO-1 DEB 3.3 21:02:27 10° W 21:04:38 33° SW 21:04:38 33° SW
Terra 2.1 21:02:23 20° S 21:05:35 61° WSW 21:10:20 10° NNW
USA 307 3.1 21:05:23 10° WNW 21:09:34 54° SSW 21:11:26 30° SE
Cosmos 2278 Rocket 2.2 21:05:44 13° SSW 21:10:43 65° ESE 21:16:20 10° NE
Cosmos 1340 Rocket 3.3 21:08:19 10° N 21:12:19 50° ENE 21:14:05 29° SE
Cosmos 923 Rocket 4.0 21:07:14 10° NNW 21:12:31 83° ENE 21:15:32 26° SSE
Spot 4 4.4 21:14:20 24° SE 21:17:00 48° ENE 21:21:42 10° N
Cosmos 1544 3.1 21:16:09 10° N 21:19:44 62° ENE 21:20:56 37° SE
Cosmos 1515 Rocket 4.2 21:17:35 13° SSW 21:21:23 53° WNW 21:25:43 10° N
Cosmos 1869 Rocket 3.5 21:17:27 10° NNW 21:21:49 81° W 21:23:54 30° S
Cosmos 1536 2.8 21:17:59 10° NNW 21:22:04 89° W 21:23:48 33° S
Cosmos 2369 Rocket 4.2 21:21:41 10° ESE 21:22:45 11° E 21:23:55 10° E
USA 308 3.3 21:18:52 10° WNW 21:23:00 47° SSW 21:24:24 34° SSE
Cosmos 2084 3.3 21:19:23 10° SW 21:23:33 80° SE 21:27:52 10° NE
Meteor 1-10 Rocket 4.3 21:22:59 17° SSW 21:27:21 80° WNW 21:33:03 10° NNE
Cosmos 2154 Rocket 4.1 21:22:37 10° NNW 21:28:59 76° W 21:33:02 24° S
Cosmos 1943 Rocket 3.5 21:30:26 21° ESE 21:31:46 23° ESE 21:36:01 10° NE
Cosmos 2084 Rocket 3.9 21:29:56 10° NW 21:34:06 58° NE 21:36:50 21° ESE
Cosmos 1812 4.2 21:31:31 11° SW 21:34:49 34° WNW 21:38:24 10° N
Cosmos 1975 4.2 21:31:27 10° N 21:34:57 28° ENE 21:36:27 22° ESE
Cosmos 44 3.5 21:33:49 10° NW 21:39:20 82° NE 21:42:24 26° SE
ALOS 2 3.3 21:38:42 27° ESE 21:40:39 44° ENE 21:44:51 10° N
Cosmos 990 Rocket 4.3 21:40:01 31° SSE 21:42:09 49° ESE 21:47:13 10° NE
NOSS 3-4 (A) 4.1 21:36:06 10° NW 21:42:47 56° SW 21:47:02 26° SSE
NOSS 3-4 (C) 4.1 21:36:12 10° NW 21:42:54 56° SW 21:47:09 26° SSE
ATLAS 5 CENTAUR R/B 4.4 21:40:40 10° W 21:43:44 14° WSW 21:47:00 10° SW
Cosmos 1707 Rocket 3.7 21:42:54 36° SSE 21:44:26 58° E 21:48:46 10° NNE
Cosmos 962 Rocket 4.4 21:42:16 10° N 21:48:27 87° W 21:51:48 29° S
Cosmos 2112 Rocket 4.0 21:45:58 10° NNW 21:51:20 76° WSW 21:53:50 33° SSE
Cosmos 1833 Rocket 4.2 21:48:07 10° NW 21:52:41 26° WSW 21:55:42 17° SW
SL-24 R/B - RUBIN 2 3.9 21:48:33 10° NW 21:54:15 80° SW 21:56:38 33° SE
NOSS 3-3 (A) 4.3 21:48:50 10° WSW 21:54:49 70° NW 22:01:48 10° NE
Cosmos 1238 Rocket 3.9 21:48:17 10° N 21:54:50 79° ENE 21:57:51 31° SSE
NOSS 3-3 (C) 4.3 21:48:56 10° WSW 21:54:55 70° NW 22:01:54 10° NE
Cosmos 1743 2.8 21:51:55 10° NNW 21:55:45 71° W 21:56:52 43° SSW
Nadezhda 1 Rocket 4.2 21:51:52 20° SSW 21:56:26 70° WNW 22:02:42 10° N
ATLAS 2AS CENTAUR R/B 2.8 21:49:09 10° NW 21:56:35 70° SW 22:00:31 28° SSE
SeaSat 1 4.1 21:54:45 10° ENE 21:57:59 17° ESE 21:58:33 17° ESE
USA 215 3.2 21:55:02 15° ESE 22:00:40 81° SSW 22:07:15 10° WNW
BREEZE-M DEB (TANK) 2.4 21:58:12 10° W 22:03:55 80° S 22:04:41 45° ESE
USA 305 4.0 22:01:07 10° W 22:04:41 27° SW 22:04:41 27° SW
Cosmos 2297 4.0 22:03:58 33° SSE 22:06:09 49° ESE 22:11:38 10° NE
Cosmos 2181 Rocket 4.0 22:07:22 31° SSE 22:10:24 66° E 22:16:29 10° NNE
Cosmos 1733 Rocket 3.1 22:10:20 10° NNW 22:14:39 69° W 22:16:02 41° SSW
SJ 16-02 2.6 22:15:15 13° SW 22:18:56 39° WNW 22:23:09 10° NNE
Cosmos 1680 Rocket 4.2 22:14:21 10° NW 22:19:22 42° WSW 22:21:27 29° SSW
Cosmos 2341 Rocket 4.3 22:13:25 10° NNW 22:19:44 63° W 22:23:08 28° SSW
Cosmos 2228 Rocket 4.5 22:17:34 16° SW 22:20:30 33° WNW 22:24:36 10° N
Cosmos 2366 rocket 3.9 22:14:50 10° N 22:21:02 88° W 22:24:07 32° S
Meteor 1-27 Rocket 4.5 22:18:37 18° SW 22:22:52 51° WNW 22:28:38 10° N
USA 306 4.5 22:20:26 10° W 22:23:05 21° SW 22:23:05 21° SW
Cosmos 1818 3.5 22:19:49 10° NW 22:25:19 72° SW 22:27:40 35° SSE
Thor Agena Rocket 4.3 22:21:06 10° NNE 22:26:00 39° E 22:27:48 30° SE
Cosmos 1937 Rocket 3.5 22:24:06 37° S 22:26:01 65° ESE 22:31:10 10° NNE
Cosmos 2082 Rocket 3.5 22:21:31 10° NW 22:26:07 26° WSW 22:28:19 21° SW
Cosmos 1908 Rocket 3.7 22:21:56 10° N 22:26:25 66° ENE 22:27:56 39° SE
Cosmos 1048 Rocket 4.5 22:27:27 10° NNW 22:32:45 57° ENE 22:35:45 25° SE
CZ-4C R/B 4.5 22:27:44 10° WNW 22:32:57 21° WSW 22:36:28 16° SW
Gbstr 26 Del rocket 4.0 22:28:43 10° W 22:35:51 62° SSW 22:40:00 20° SE
ERBS 2.0 22:33:43 10° WNW 22:37:03 81° SSW 22:37:05 80° SSW
Cosmos 2218 Rocket 4.1 22:32:47 10° NNW 22:39:00 67° W 22:42:06 31° SSW
Cosmos 858 Rocket 4.4 22:37:14 36° SSW 22:39:23 79° ESE 22:44:38 10° NNE
USA 281 4.2 22:36:54 10° ESE 22:43:02 44° NE 22:49:12 10° NNW
Meteor 1-19 Rocket 4.1 22:40:49 35° SSW 22:43:13 86° WNW 22:48:40 10° NNE
Okean 1 3.8 22:46:34 37° SW 22:47:50 53° WNW 22:51:46 10° N
Cosmos 1461 3.7 22:53:28 37° SE 22:54:07 39° ESE 22:58:25 10° NE
Cosmos 2278 Rocket 3.7 22:50:06 10° WSW 22:55:13 34° NW 23:00:21 10° NNE
Cosmos 1782 Rocket 3.6 22:53:20 10° N 22:57:49 75° ENE 22:59:17 42° SSE
Cosmos 1703 Rocket 3.6 22:57:18 44° SSE 22:58:29 65° E 23:02:52 10° NNE
Cosmos 1862 Rocket 4.1 22:57:00 33° SW 22:58:35 51° WNW 23:02:50 10° N
Cosmos 1898 Rocket 4.0 22:57:39 23° SW 23:00:53 57° WNW 23:06:11 10° NNE
MTI 3.9 22:58:22 10° N 23:01:21 57° WNW 23:01:27 56° W
Cosmos 44 Rocket 4.1 22:59:57 10° NW 23:05:07 54° NE 23:10:12 10° ESE
Nadezhda 3 Rocket 4.2 23:02:11 31° SSE 23:05:11 64° E 23:11:21 10° NNE
Cosmos 1378 3.8 23:04:38 37° ESE 23:05:13 40° E 23:08:43 10° NNE
Cosmos 2369 Rocket 2.4 23:03:27 36° S 23:05:32 56° ESE 23:11:05 10° NE
RESURS DK-1 2.3 23:04:18 10° NNW 23:08:29 84° NE 23:09:53 41° SE
COBE Rocket 4.5 23:07:05 33° SSW 23:08:50 47° W 23:13:48 10° NNW
Meteor 1-12 Rocket 4.3 23:04:17 10° NNW 23:10:15 84° ENE 23:13:07 32° SSE
Gblst 52 Del rocket 4.5 23:03:47 10° W 23:10:20 55° SSW 23:14:41 18° SE
Cosmos 1975 3.8 23:07:50 10° NNW 23:11:25 33° W 23:12:12 30° WSW
SL-27 R/B 2.4 23:09:30 10° NNW 23:12:49 68° ENE 23:13:17 57° ESE
Cosmos 1805 4.0 23:09:25 10° N 23:13:12 45° ENE 23:14:33 32° ESE
Cosmos 2084 Rocket 4.4 23:09:37 10° WNW 23:13:20 31° WSW 23:13:20 31° WSW
SAR-Lupe-2 4.3 23:10:09 10° N 23:13:36 45° WNW 23:14:31 36° WSW
Cosmos 1943 Rocket 2.2 23:11:54 29° SW 23:14:56 79° WNW 23:20:34 10° NNE
Cosmos 1733 4.2 23:11:45 10° N 23:15:20 38° ENE 23:16:42 28° ESE
PSLV R/B 3.8 23:12:43 10° NNE 23:17:09 59° ESE 23:18:26 41° SSE
ALOS 2 3.9 23:16:05 24° WSW 23:17:09 27° W 23:20:55 10° NW
Cosmos 1766 4.4 23:15:37 10° N 23:19:22 38° ENE 23:21:04 25° ESE
Cosmos 1867 4.3 23:18:57 32° SSE 23:20:29 38° ESE 23:25:31 10° NE
DNEPR-1 R/B 3.9 23:19:57 29° SW 23:22:54 88° SE 23:27:43 10° NE
Meteor 2-4 Rocket 3.8 23:20:31 32° SSW 23:23:17 72° WNW 23:28:57 10° N
Cosmos 2263 4.4 23:22:38 34° S 23:24:59 59° ESE 23:30:41 10° NE
EO 1 Del DPAF 3.2 23:23:11 10° NNE 23:26:55 65° ESE 23:27:38 51° SSE
Cosmos 1605 Rocket 4.5 23:21:46 10° N 23:27:52 56° ENE 23:32:12 20° SE
Okean 3 3.5 23:28:08 44° SSE 23:29:23 70° E 23:33:37 10° NNE
Okean 1-7 3.1 23:30:15 41° SW 23:31:34 65° WNW 23:35:50 10° N
ATLAS CENTAUR R/B 2.6 23:33:01 22° ESE 23:33:01 22° ESE 23:36:00 10° ENE
Cosmos 372 Rocket 4.1 23:30:36 31° SW 23:33:02 68° WNW 23:38:09 10° NNE
Helios 1A 3.2 23:31:39 33° SE 23:33:23 64° ENE 23:37:31 10° N
Cosmos 1400 Rocket 4.4 23:29:55 10° N 23:33:40 32° ENE 23:36:19 16° ESE
Sich 1 Rocket 3.6 23:29:14 10° N 23:33:52 86° E 23:35:34 38° SSE
SeaSat 1 2.4 23:31:11 10° NNE 23:36:10 85° ESE 23:38:19 35° SSW
NOSS 2-1 (E) 4.2 23:31:57 10° NW 23:36:29 74° NE 23:42:51 10° SE
Cosmos 1125 Rocket 3.8 23:35:51 34° SSE 23:37:53 55° ESE 23:42:59 10° NNE
Cosmos 494 Rocket 4.0 23:32:57 10° NNW 23:38:09 66° WSW 23:40:13 35° S
USA 81 4.4 23:34:12 10° N 23:39:28 61° E 23:42:25 26° SSE
Cosmos 1656 Rocket 3.7 23:39:04 35° S 23:41:21 66° ESE 23:46:52 10° NE
Cosmos 2242 Rocket 4.1 23:40:22 32° SW 23:41:59 49° WNW 23:46:20 10° N
USA 215 3.8 23:42:20 29° SSW 23:44:17 35° SW 23:50:11 10° WNW
Cosmos 1833 4.4 23:39:28 10° NW 23:45:05 55° WSW 23:47:33 32° S
ATLAS 2AS CENTAUR R/B 4.1 23:41:27 10° WNW 23:46:14 19° WSW 23:47:57 18° SW
Cosmos 2227 Rocket 4.1 23:43:05 10° NNW 23:48:03 30° NE 23:52:59 10° E
CZ-2D R/B 3.6 23:45:52 10° NNE 23:50:32 28° E 23:53:55 16° SE
Cosmos 2297 Rocket 3.7 23:46:41 10° NNW 23:51:56 36° NE 23:57:09 10° ESE
